Location: Newark
(54.0500°N, 12.8333°E)
Time: 17:25:16
(UTC+00:00)

A-11 Canister half - All Passes

Search period start: 26 January 2020 00:00
Search period end: 05 February 2020 00:00
Orbit: 1517 x 1683 km, 47.2° (Epoch: 25 January)

Date Brightness Start Highest point End Pass type
(mag) Time Alt. Az. Time Alt. Az. Time Alt. Az.
26 Jan - 00:27:36 10° WSW 00:36:35 55° S 00:45:30 10° E visible
26 Jan - 02:31:41 10° W 02:40:36 54° SSW 02:49:30 10° ESE visible
26 Jan - 04:36:21 10° W 04:44:05 31° SW 04:51:53 10° SSE visible
26 Jan - 20:06:46 10° SE 20:07:45 10° SE 20:08:45 10° ESE night (unlit)
26 Jan - 22:02:13 10° SSW 22:10:11 32° SE 22:18:01 10° E night (unlit)
27 Jan - 00:04:44 10° WSW 00:13:44 54° SSE 00:22:37 10° E visible
27 Jan - 02:08:48 10° W 02:17:45 54° SSW 02:26:39 10° ESE visible
27 Jan - 04:13:26 10° W 04:21:17 33° SW 04:29:11 10° SSE visible
27 Jan - 06:22:13 10° WSW 06:23:42 10° SW 06:25:11 10° SW visible
27 Jan - 21:39:31 10° SSW 21:47:22 31° SE 21:55:06 10° E night (unlit)
27 Jan - 23:41:53 10° WSW 23:50:53 53° SSE 23:59:45 10° E visible
28 Jan - 01:45:56 10° W 01:54:53 55° S 02:03:48 10° ESE visible
28 Jan - 03:50:31 10° W 03:58:28 34° SW 04:06:29 10° SSE visible
28 Jan - 05:58:18 10° WSW 06:00:57 11° SW 06:03:37 10° SW visible
28 Jan - 21:16:49 10° SSW 21:24:34 30° SE 21:32:10 10° E night (unlit)
28 Jan - 23:19:02 10° WSW 23:28:01 52° SSE 23:36:52 10° E night (unlit)
29 Jan - 01:23:02 10° W 01:32:02 56° S 01:40:58 10° ESE visible
29 Jan - 03:27:36 10° W 03:35:39 35° SSW 03:43:45 10° SSE visible
29 Jan - 05:34:48 10° WSW 05:38:13 13° SW 05:41:38 10° SSW visible
29 Jan - 20:54:08 10° SSW 21:01:46 28° SE 21:09:15 10° E night (unlit)
29 Jan - 22:56:12 10° SW 23:05:10 52° SSE 23:14:00 10° E night (unlit)
30 Jan - 01:00:09 10° W 01:09:10 56° S 01:18:07 10° ESE visible
30 Jan - 03:04:41 10° W 03:12:51 37° SSW 03:21:01 10° SSE visible
30 Jan - 05:11:27 10° W 05:15:28 14° SW 05:19:30 10° SSW visible
30 Jan - 20:31:28 10° SSW 20:38:57 27° SE 20:46:18 10° E visible
30 Jan - 22:33:21 10° SW 22:42:20 51° SSE 22:51:08 10° E night (unlit)
31 Jan - 00:37:16 10° W 00:46:19 57° S 00:55:16 10° ESE visible
31 Jan - 02:41:46 10° W 02:50:02 38° SSW 02:58:17 10° SSE visible
31 Jan - 04:48:12 10° W 04:52:43 15° SW 04:57:14 10° SSW visible
31 Jan - 20:08:48 10° S 20:16:09 26° SE 20:23:22 10° E visible
31 Jan - 22:10:31 10° SW 22:19:28 50° SSE 22:28:15 10° E night (unlit)
01 Feb - 00:14:23 10° W 00:23:27 57° S 00:32:25 10° ESE visible
01 Feb - 02:18:51 10° W 02:27:13 39° SSW 02:35:31 10° SE visible
01 Feb - 04:25:01 10° W 04:29:57 16° SW 04:34:54 10° SSW visible
01 Feb - 19:46:10 10° S 19:53:21 25° SE 20:00:25 10° E visible
01 Feb - 21:47:40 10° SW 21:56:37 48° SSE 22:05:22 10° E visible
01 Feb - 23:51:29 10° W 00:00:36 58° S 00:09:34 10° ESE night (unlit)
02 Feb - 01:55:57 10° W 02:04:23 41° SSW 02:12:47 10° SE visible
02 Feb - 04:01:53 10° W 04:07:11 17° SW 04:12:30 10° SSW visible
02 Feb - 19:23:33 10° S 19:30:34 23° SE 19:37:26 10° E visible
02 Feb - 21:24:50 10° SW 21:33:46 47° SSE 21:42:30 10° E visible
02 Feb - 23:28:36 10° WSW 23:37:44 58° S 23:46:43 10° ESE night (unlit)
03 Feb - 01:33:03 10° W 01:41:34 42° SSW 01:50:01 10° SE visible
03 Feb - 03:38:48 10° W 03:44:25 18° SW 03:50:04 10° S visible
03 Feb - 19:00:57 10° S 19:07:47 22° SE 19:14:27 10° E visible
03 Feb - 21:02:00 10° SW 21:10:56 46° SSE 21:19:37 10° E visible
03 Feb - 23:05:43 10° WSW 23:14:53 58° S 23:23:51 10° ESE night (unlit)
04 Feb - 01:10:08 10° W 01:18:44 43° SSW 01:27:14 10° SE visible
04 Feb - 03:15:43 10° W 03:21:39 19° SW 03:27:37 10° S visible
04 Feb - 18:38:23 10° S 18:44:59 21° SE 18:51:28 10° E visible
04 Feb - 20:39:11 10° SW 20:48:05 45° SSE 20:56:45 10° E visible
04 Feb - 22:42:49 10° WSW 22:52:01 58° S 23:01:01 10° ESE visible
